Weather History for Bangkok (Don Mueang), Thailand

Change the Weather History Date:

Thursday, October 17, 2013

  Actual Average Record
Temperature  
Mean Temperature 79 °F -  
Max Temperature 81 °F 88 °F 96 °F (1996)
Min Temperature 77 °F 75 °F 75 °F (2010)
Cooling Degree Days 14    
Growing Degree Days 29 (Base 50)    
Moisture  
Dew Point 76 °F    
Average Humidity 91    
Maximum Humidity 100    
Minimum Humidity 84    
Precipitation  
Precipitation 0.39 in 0.13 in - ()
Sea Level Pressure  
Sea Level Pressure 29.82 in    
Wind  
Wind Speed 3 mph ()    
Max Wind Speed 29 mph    
Max Gust Speed -    
Visibility 4.2 miles    
Events Rain , Thunderstorm    
Averages and records for this station are not official NWS values.
T = Trace of Precipitation, MM = Missing Value Source: Averaged Metar Reports

Daily Weather History Graph

Daily Weather History Graph

Search for Another Location

Airport:

Trip Planner

Search our weather history database for the weather conditions in past years. The results will help you decide how hot, cold, wet, or windy it might be!

Date:

Astronomy

Oct. 17, 2013 Rise Set
Actual Time 6:08 AM ICT 5:56 PM ICT
Civil Twilight 5:47 AM ICT 6:18 PM ICT
Nautical Twilight 5:22 AM ICT 6:43 PM ICT
Astronomical Twilight 4:57 AM ICT 7:08 PM ICT
Moon 4:41 PM ICT (10/17) 4:23 AM ICT (10/17)
Length of Visible Light 12h 31m
Length of Day
11h 48m
Waxing Gibbous, 96% of the Moon is Illuminated
Oct 17
Waxing Gibbous
Oct 19
Full
Oct 27
Last Quarter
Nov 3
New
Nov 10
First Quarter

Hourly Weather History & Observations

Time (ICT) Temp. Heat Index Dew Point Humidity Pressure Visibility Wind Dir Wind Speed Gust Speed Precip Events Conditions
12:00 AM 78.8 °F - 77.0 °F 94% 29.80 in 3.7 mi Calm Calm - N/A   Mostly Cloudy
12:30 AM 78.8 °F - 77.0 °F 94% 29.80 in 3.7 mi SSE 2.3 mph - N/A   Mostly Cloudy
1:00 AM 78 °F - 76 °F 94% 29.81 in 3 mi South 2.3 mph - -   Mist
1:00 AM 78.8 °F - 77.0 °F 94% 29.80 in 3.1 mi SSE 2.3 mph - N/A   Mostly Cloudy
1:30 AM 78.8 °F - 77.0 °F 94% 29.80 in 3.1 mi SSW 6.9 mph - N/A   Mostly Cloudy
2:00 AM 78.8 °F - 77.0 °F 94% 29.77 in 3.1 mi South 4.6 mph - N/A   Mostly Cloudy
2:30 AM 78.8 °F - 77.0 °F 94% 29.77 in 3.1 mi SSW 5.8 mph - N/A   Mostly Cloudy
3:00 AM 78.8 °F - 77.0 °F 94% 29.77 in 3.1 mi Calm Calm - N/A   Mostly Cloudy
3:30 AM 78.8 °F - 77.0 °F 94% 29.77 in 3.1 mi Calm Calm - N/A   Mostly Cloudy
4:00 AM 78.8 °F - 77.0 °F 94% 29.77 in 2.5 mi East 3.5 mph - N/A   Light Drizzle
4:30 AM 78.8 °F - 77.0 °F 94% 29.77 in 3.1 mi East 3.5 mph - N/A   Mostly Cloudy
5:00 AM 78.8 °F - 77.0 °F 94% 29.77 in 3.1 mi East 3.5 mph - N/A   Mostly Cloudy
5:30 AM 77.0 °F - 77.0 °F 100% 29.77 in 2.5 mi East 3.5 mph - N/A   Mostly Cloudy
6:00 AM 78.8 °F - 77.0 °F 94% 29.80 in 2.5 mi East 3.5 mph - N/A Rain Light Rain
6:30 AM 78.8 °F - 77.0 °F 94% 29.80 in 2.5 mi ESE 3.5 mph - N/A Rain Light Rain
7:00 AM 79 °F - 76 °F 89% 29.84 in 3 mi ESE 3.5 mph - - Rain Light Rain
7:00 AM 78.8 °F - 77.0 °F 94% 29.83 in 3.1 mi ESE 3.5 mph - N/A   Mostly Cloudy
7:30 AM 78.8 °F - 77.0 °F 94% 29.83 in 4.3 mi ESE 3.5 mph - N/A Rain Light Rain
8:00 AM 78.8 °F - 77.0 °F 94% 29.86 in 3.7 mi West 2.3 mph - N/A Rain Light Rain
8:30 AM 77.0 °F - 75.2 °F 94% 29.86 in 3.1 mi Calm Calm - N/A Rain Light Rain
9:00 AM 77.0 °F - 75.2 °F 94% 29.86 in 3.1 mi SSE 2.3 mph - N/A Rain Light Rain
9:30 AM 78.8 °F - 77.0 °F 94% 29.89 in 3.1 mi ESE 5.8 mph - N/A Rain Light Rain
10:00 AM 78.8 °F - 77.0 °F 94% 29.89 in 3.7 mi East 5.8 mph - N/A Rain Light Rain
10:30 AM 78.8 °F - 77.0 °F 94% 29.89 in 4.3 mi East 28.8 mph - N/A   Mostly Cloudy
11:00 AM 80.6 °F 87.1 °F 77.0 °F 89% 29.86 in 4.3 mi East 3.5 mph - N/A   Mostly Cloudy
11:30 AM 80.6 °F 87.1 °F 77.0 °F 89% 29.86 in 3.7 mi East 2.3 mph - N/A Rain Light Rain
12:00 PM 80.6 °F 87.1 °F 77.0 °F 89% 29.86 in 1.9 mi South 3.5 mph - N/A Rain , Thunderstorm Thunderstorms and Rain
12:30 PM 78.8 °F - 77.0 °F 94% 29.83 in 3.1 mi SSW 8.1 mph - N/A Rain , Thunderstorm Light Thunderstorms and Rain
1:00 PM 78 °F - 75 °F 89% 29.84 in 4 mi SW 5.8 mph - - Rain , Thunderstorm Thunderstorms and Rain
1:00 PM 78.8 °F - 75.2 °F 89% 29.83 in 3.7 mi SW 5.8 mph - N/A Rain Light Rain
1:30 PM 78.8 °F - 75.2 °F 89% 29.80 in 4.3 mi Calm Calm - N/A   Mostly Cloudy
2:00 PM 80.6 °F 87.1 °F 77.0 °F 89% 29.80 in 5.0 mi Calm Calm - N/A   Mostly Cloudy
2:30 PM 78.8 °F - 75.2 °F 89% 29.77 in 5.6 mi Calm Calm - N/A   Mostly Cloudy
3:00 PM 80.6 °F 86.2 °F 75.2 °F 84% 29.77 in 5.6 mi Calm Calm - N/A   Mostly Cloudy
3:30 PM 80.6 °F 86.2 °F 75.2 °F 84% 29.77 in 5.6 mi SSE 8.1 mph - N/A   Mostly Cloudy
4:00 PM 80.6 °F 86.2 °F 75.2 °F 84% 29.77 in 5.6 mi SE 3.5 mph - N/A   Mostly Cloudy
4:30 PM 80.6 °F 86.2 °F 75.2 °F 84% 29.77 in 5.6 mi East 2.3 mph - N/A   Mostly Cloudy
5:00 PM 80.6 °F 86.2 °F 75.2 °F 84% 29.77 in 5.6 mi East 2.3 mph - N/A   Mostly Cloudy
5:30 PM 80.6 °F 86.2 °F 75.2 °F 84% 29.77 in 5.6 mi East 2.3 mph - N/A   Mostly Cloudy
6:00 PM 80.6 °F 86.2 °F 75.2 °F 84% 29.77 in 5.6 mi East 2.3 mph - N/A   Mostly Cloudy
6:30 PM 80.6 °F 86.2 °F 75.2 °F 84% 29.80 in 5.6 mi SSE 2.3 mph - N/A   Mostly Cloudy
7:00 PM 79 °F - 76 °F 87% 29.82 in 6 mi East 2.3 mph - -   Mist
7:00 PM 78.8 °F - 75.2 °F 89% 29.80 in 5.6 mi East 2.3 mph - N/A   Mostly Cloudy
7:30 PM 78.8 °F - 75.2 °F 89% 29.80 in 6.2 mi East 2.3 mph - N/A   Mostly Cloudy
8:00 PM 78.8 °F - 75.2 °F 89% 29.83 in 6.2 mi East 3.5 mph - N/A   Mostly Cloudy
8:30 PM 78.8 °F - 77.0 °F 94% 29.86 in 5.0 mi ENE 4.6 mph - N/A   Mostly Cloudy
9:00 PM 78.8 °F - 77.0 °F 94% 29.89 in 5.0 mi East 3.5 mph - N/A   Mostly Cloudy
9:30 PM 78.8 °F - 77.0 °F 94% 29.89 in 5.0 mi East 3.5 mph - N/A   Mostly Cloudy
10:00 PM 78.8 °F - 75.2 °F 89% 29.89 in 5.0 mi East 2.3 mph - N/A   Mostly Cloudy
10:30 PM 78.8 °F - 77.0 °F 94% 29.89 in 5.0 mi East 2.3 mph - N/A   Mostly Cloudy
11:00 PM 78.8 °F - 77.0 °F 94% 29.89 in 5.0 mi East 2.3 mph - N/A   Mostly Cloudy
11:30 PM 78.8 °F - 77.0 °F 94% 29.89 in 5.0 mi Calm Calm - N/A   Mostly Cloudy